Regional Weather Roundup
Issued by NWS

Home | Current Version | Previous Version | Text Only | Print | Product List | Glossary Off
Versions: 1 2 3 4 5 6 7 8 9 10 11 12 13 14 15 16 17 18 19 20 21 22 23 24 25 26 27 28 29 30 31 32 33 34 35 36 37 38 39 40 41 42 43 44 45 46 47 48 49 50

395
ASUS43 KDMX 261101
RWRIA

WEATHER ROUNDUP FOR IOWA
NATIONAL WEATHER SERVICE DES MOINES IA
600 AM CDT MON JUN 26 2017

NOTE: "FAIR" INDICATES FEW OR NO CLOUDS BELOW 12,000 FEET WITH NO
SIGNIFICANT WEATHER AND/OR OBSTRUCTIONS TO VISIBILITY.

* - THESE STATIONS ARE NOT NWS STATIONS...THUS NOT UNDER NWS
QUALITY CONTROL.  THEY ALSO DO NOT REPORT WEATHER SUCH
AS PRECIPITATION OR FOG.

IAZ001>003-012>014-020>022-031>034-043>046-261200-
   NORTHWEST IOWA

CITY           SKY/WX    TMP DP  RH WIND       PRES   REMARKS
CARROLL *      RAIN      55  54  94 S14       30.19F
CHEROKEE *     PTCLDY    49  49 100 NE7       30.19R
DENISON *      CLOUDY    54  52  94 E8        30.21F
LE MARS *      PTCLDY    50  50 100 CALM      30.19S
ORANGE CITY *  CLEAR     54  52  94 CALM      30.20R
SHELDON *      CLEAR     50  50 100 CALM      30.19R FOG
SIOUX CITY     CLOUDY    54  53  97 SE6       30.19F
SPENCER        CLEAR     50  49  96 N5        30.19S
STORM LAKE *   PTCLDY    52  50  93 S8        30.19S
$$

IAZ055>058-069>071-079>083-090>094-261200-
   SOUTHWEST IOWA

CITY           SKY/WX    TMP DP  RH WIND       PRES   REMARKS
ATLANTIC *     PTCLDY    55  52  88 NE5       30.22F
AUDUBON *      RAIN      54  50  87 N10       30.27R
CLARINDA *     CLOUDY    54  54 100 CALM      30.24S
COUNCIL BLFS * CLOUDY    55  54  94 N6        30.21R
CRESTON *      CLOUDY    55  50  82 VRB3      30.25R
HARLAN  *      LGT RAIN  55  54  94 N10       30.26R
LAMONI         CLOUDY    52  48  86 N5        30.22R
RED OAK *      CLOUDY    55  54  94 E3        30.20S
SHENANDOAH *   CLOUDY    55  52  88 E3        30.20F
$$

IAZ047>049-059>061-072>074-084-261200-
   CENTRAL IOWA

CITY           SKY/WX    TMP DP  RH WIND       PRES   REMARKS
AMES           LGT RAIN  54  54 100 SW5       30.19F
ANKENY *       MOCLDY    55  54  94 MISG      30.22F
BOONE *        CLOUDY    54  52  94 SW6       30.19F
CHARITON *     LGT RAIN  54  50  87 N6        30.23R
DES MOINES     LGT RAIN  56  53  90 SE5       30.21F
GRINNELL*      CLOUDY    55  50  81 W8        30.21F
KNOXVILLE *    LGT RAIN  55  52  88 N9        30.23R
MARSHALLTOWN   MOCLDY    55  52  89 SW6       30.18F
NEWTON *         N/A     54  52  94 W5        30.22S FOG
PELLA *        RAIN      54  51  87 NW5       30.25R
PERRY *        MOCLDY    55  53  96 S5        30.21F
$$

IAZ004>006-015-016-023>025-035-036-261200-
   NORTH CENTRAL IOWA

CITY           SKY/WX    TMP DP  RH WIND       PRES   REMARKS
ALGONA *       MOCLDY    54  54 100 CALM      30.18F
CLARION *        N/A     54  54 100 CALM      30.18S
ESTHERVILLE    CLEAR     50  50 100 NW6       30.18F
FORT DODGE *   CLOUDY    54  48  82 CALM      30.19F
MASON CITY     PTCLDY    53  48  83 W8        30.19S
FOREST CITY *  CLOUDY    54  45  71 W3        30.18S
WEBSTER CITY * CLOUDY    54  52  94 W6        30.17S
IOWA FALLS *     N/A     54  51  92 W5        30.19F
$$

IAZ007>011-017>019-026>030-037>042-050>054-066-261200-
   NORTHEAST IOWA

CITY           SKY/WX    TMP DP  RH WIND       PRES   REMARKS
CEDAR RAPIDS   CLOUDY    55  51  86 NW10      30.18R
CHARLES CITY * MOCLDY    52  50  93 W6        30.17S
CLINTON *      MOCLDY    50  48  93 W7        30.16R
DECORAH *      PTCLDY    50  46  87 SW3       30.14R
DUBUQUE        PTCLDY    51  44  77 W8        30.15R
MONTICELLO *   PTCLDY    52  46  82 W9        30.16R
OELWEIN *      CLOUDY    52  50  93 W6        30.17S
WATERLOO       MOCLDY    55  49  80 W8        30.16F
$$

IAZ064-065-067-068-078-261200-
   EAST CENTRAL IOWA

CITY           SKY/WX    TMP DP  RH WIND       PRES   REMARKS
DAVENPORT      MOCLDY    52  47  83 W8        30.17R
IOWA CITY      CLOUDY    57  47  69 NW9       30.20R
MT. PLEASANT * CLOUDY    53  46  76 W6        30.20R
MUSCATINE *    CLOUDY    55  46  71 CALM      30.18S
QUAD CITIES    CLOUDY    52  46  80 SW5       30.17R
$$

IAZ062-063-075>077-085>089-095>099-261200-
   SOUTHEAST IOWA

CITY           SKY/WX    TMP DP  RH WIND       PRES   REMARKS
BURLINGTON     PTCLDY    51  47  86 CALM      30.19S
FAIRFIELD *    CLOUDY    55  46  71 NW8       30.22R
FORT MADISON * PTCLDY    52  46  82 CALM      30.20S
KEOKUK *       CLEAR     52  48  87 W5        30.19F
OSKALOOSA *    LGT RAIN  55  49  81 NW6       30.23S
OTTUMWA        LGT RAIN  56  50  80 NW8       30.22R
WASHINGTON *   CLOUDY    55  48  76 W8        30.21S
$$

ABBREVIATIONS USED IN REMARKS
   TC - TEMPERATURES IN CELSIUS
  WCI - WIND CHILL INDEX
   HX - HEAT INDEX
  VSB - VISIBILITY
$$





USA.gov is the U.S. government's official web portal to all federal, state and local government web resources and services.